(472) Roma
ephemeris date magn radius delta ra dec elong phase
Today24 Aug 202614.42.784 AU2.813 AU15h17m-04°27'78.0°20.8°
Opposition18 Aug 202712.22.548 AU1.543 AU22h04m-20°52'171.4°3.4°
(472) Roma - 2026-08-24
astro.vanbuitenen.nl


 
-1 year
-1 month
-1 day
Now
+1 day
+1 month
+1 year

The interactive orbit chart above shows the body's path through the solar system and its position at the given date. Green and blue lines are shown perpendicular to the ecliptic plane: Green if the path is above the ecliptic plane, blue if it is below. (Left-click and drag to rotate the view; Right-click and drag to move the view; Use scroll wheel to zoom in our out.)

The orbital elements of Roma are:

            e (Eccentricity)                : 0.0952979
            a (Semimajor axis)              : 2.5432348
            i (Inclination)                 : 15.81630
            Ω (Longitude of ascending node) : 126.99674
            ω (Argument of perihelion)      : 295.82557
            M (Mean anomaly)                : 168.46153
            Epoch                           : 2026 Jun 09

            L (Longitude of perihelion)     : 63.69975
            B (Latitude of perihelion)      : -14.20148
            P (Orbital period in years)     : 4.06            
        

The light curve chart below shows the estimated development of the minor planet's magnitude.


The all-sky chart below shows the path of the minor planet over the same period as the light curve. The current position is marked yellow.





The following chart shows the path of the minor planet in the next few days. The field of view is optimized for (~10x50) binoculars and finderscopes.




Ephemerides:
Date       Time       RA (2000)    DEC (2000)    delta   radius  elong  phase   PA    magn
2026-08-24 00:00 UT   15 17 32.2   -04 27 02     2.813    2.784   78.0   20.8   103   14.4 
2026-08-24 13:19 UT   15 18 03.1   -04 32 16     2.820    2.784   77.6   20.8   102   14.4 
2026-08-25 00:00 UT   15 18 28.1   -04 36 28     2.825    2.784   77.3   20.7   102   14.4 
2026-08-26 00:00 UT   15 19 24.8   -04 45 52     2.838    2.784   76.7   20.7   102   14.4 
2026-08-27 00:00 UT   15 20 22.3   -04 55 15     2.850    2.784   76.0   20.6   102   14.4 
2026-08-28 00:00 UT   15 21 20.6   -05 04 37     2.863    2.784   75.3   20.6   102   14.4 
2026-08-29 00:00 UT   15 22 19.6   -05 13 57     2.875    2.784   74.6   20.5   101   14.4 
2026-08-30 00:00 UT   15 23 19.4   -05 23 16     2.887    2.783   74.0   20.4   101   14.4 
2026-08-31 00:00 UT   15 24 20.0   -05 32 34     2.900    2.783   73.3   20.3   101   14.4 
2026-09-01 00:00 UT   15 25 21.3   -05 41 50     2.912    2.783   72.7   20.3   101   14.4 
2026-09-02 00:00 UT   15 26 23.3   -05 51 04     2.924    2.783   72.0   20.2   101   14.4 
2026-09-03 00:00 UT   15 27 26.1   -06 00 17     2.937    2.783   71.3   20.1   100   14.4 
2026-09-04 00:00 UT   15 28 29.6   -06 09 28     2.949    2.783   70.7   20.0   100   14.4 
2026-09-05 00:00 UT   15 29 33.8   -06 18 38     2.961    2.783   70.0   19.9   100   14.4 
2026-09-06 00:00 UT   15 30 38.8   -06 27 45     2.973    2.782   69.4   19.8   100   14.5 
2026-09-07 00:00 UT   15 31 44.4   -06 36 51     2.985    2.782   68.7   19.7    99   14.5 
2026-09-08 00:00 UT   15 32 50.7   -06 45 55     2.997    2.782   68.1   19.6    99   14.5 
2026-09-09 00:00 UT   15 33 57.8   -06 54 56     3.009    2.782   67.4   19.5    99   14.5 
2026-09-10 00:00 UT   15 35 05.5   -07 03 56     3.021    2.782   66.8   19.4    99   14.5 
2026-09-11 00:00 UT   15 36 13.9   -07 12 53     3.032    2.782   66.1   19.3    98   14.5 
2026-09-12 00:00 UT   15 37 23.0   -07 21 48     3.044    2.782   65.5   19.2    98   14.5 
2026-09-13 00:00 UT   15 38 32.7   -07 30 41     3.056    2.781   64.8   19.1    98   14.5 
2026-09-14 00:00 UT   15 39 43.1   -07 39 32     3.067    2.781   64.2   19.0    98   14.5 
2026-09-15 00:00 UT   15 40 54.1   -07 48 20     3.079    2.781   63.6   18.9    98   14.5 
2026-09-16 00:00 UT   15 42 05.7   -07 57 05     3.091    2.781   62.9   18.8    97   14.5 
2026-09-17 00:00 UT   15 43 18.0   -08 05 48     3.102    2.781   62.3   18.7    97   14.5 
2026-09-18 00:00 UT   15 44 30.9   -08 14 29     3.113    2.780   61.6   18.5    97   14.5 
2026-09-19 00:00 UT   15 45 44.4   -08 23 06     3.125    2.780   61.0   18.4    97   14.5 
2026-09-20 00:00 UT   15 46 58.5   -08 31 41     3.136    2.780   60.4   18.3    96   14.5 


    Terminology:
            
    delta:  distance between minor planet and earth in AU
    radius: distance between minor planet and sun in AU
    magn:   magnitude (brightness) estimate    
    ra:     right ascension in hours (24h = 360deg)
    dec:    declination in degrees
    elong:  elongation in degrees (angle sun-earth-minor planet)    
    phase:  phase angle in degrees (angle sun-minor planet-earth)        
    AU:     Astronomical Unit (mean distance between earth and sun: 149597870.7 km
    

Orbital elements provided by the MPC (Minor Planet Center).
Calculations by a modified version of AAPlus, a C# implementation of the AA+ project by PJ Naughter from the algorithms presented in the book "Astronomical Algorithms" by Jean Meeus.
NGC2000 dso catalog and star labels from VizieR as provided by the Strasbourg astronomical Data Center.
Tycho2 catalog from the ESO archive.